Overview Statistics Trail Chart Weather Telemetry Raw packets
 

This is the latest recevied weather packets stored in our database for station/object W0WC. If no packets are shown the sender has not sent any weather packets the latest 10 day(s).

<< 79 80 81 82 83 84 85 >>
Time Temp. Humidity Pressure Rain* Wind** Luminosity Snow
1788117225 37.22° C 33% 1015.4 hPa 0 mm - 486 W/m² -
1788116921 37.78° C 32% 1015.2 hPa 0 mm - 695 W/m² -
1788116616 36.67° C 34% 1015.5 hPa 0 mm - 606 W/m² -
1788116315 36.67° C 34% 1015.4 hPa 0 mm - 724 W/m² -
1788116010 37.22° C 34% 1015.5 hPa 0 mm - 634 W/m² -
1788115705 37.22° C 34% 1015.6 hPa 0 mm - 645 W/m² -
1788115404 36.67° C 35% 1015.6 hPa 0 mm - 646 W/m² -
1788115093 36.11° C 36% 1015.7 hPa 0 mm - 645 W/m² -
1788114793 36.67° C 35% 1015.8 hPa 0 mm - 704 W/m² -
1788114489 36.11° C 35% 1016 hPa 0 mm - 631 W/m² -
1788114184 36.11° C 36% 1015.9 hPa 0 mm - 494 W/m² -
1788113880 36.67° C 35% 1016.1 hPa 0 mm - 606 W/m² -
1788113575 36.67° C 35% 1016 hPa 0 mm - 615 W/m² -
1788113274 36.11° C 35% 1015.8 hPa 0 mm - 645 W/m² -
1788112970 35.56° C 35% 1016.1 hPa 0 mm - 619 W/m² -
1788112663 36.11° C 36% 1016.4 hPa 0 mm - 612 W/m² -
1788112359 35.56° C 36% 1016 hPa 0 mm - 678 W/m² -
1788112053 35.56° C 36% 1016.4 hPa 0 mm - 661 W/m² -
1788111749 35.56° C 36% 1016.4 hPa 0 mm - 646 W/m² -
1788111449 35.56° C 35% 1016.5 hPa 0 mm - 658 W/m² -
1788111144 35° C 36% 1016.4 hPa 0 mm - 629 W/m² -
1788110840 35.56° C 36% 1016.6 hPa 0 mm - 653 W/m² -
1788110537 35.56° C 36% 1016.6 hPa 0 mm - 719 W/m² -
1788110232 35° C 36% 1016.7 hPa 0 mm - 698 W/m² -
1788109927 34.44° C 36% 1016.9 hPa 0 mm - 701 W/m² -

* Rain latest hour (hover to see other rain measurements)
** Current wind speed in m/s (hover to see current wind gust speed)